When you browse on this site, cookies collect data to enhance your experience and personalize the content and advertising you see.
Visit our Privacy Policy to learn more. By continuing to use the site, you agree to this use of cookies and data.

Stündliche Wetter Sydney

Heute, 9 Juli, Donnerstag

Zeit Temperatur Niederschläge Wind Luftdruck Luftfeuchtigkeit
00:00 +10°C° 0 mm 2 m/S 771 mmHg 87%
01:00 +10°C° 0 mm 2 m/S 771 mmHg 88%
02:00 +9°C° 0 mm 2 m/S 771 mmHg 89%
03:00 +9°C° 0 mm 2 m/S 771 mmHg 90%
04:00 +9°C° 0 mm 2 m/S 771 mmHg 90%
05:00 +9°C° 0 mm 2 m/S 771 mmHg 90%
06:00 +9°C° 0 mm 2 m/S 771 mmHg 90%
07:00 +9°C° 0 mm 2 m/S 772 mmHg 90%
08:00 +10°C° 0 mm 2 m/S 772 mmHg 82%
09:00 +13°C° 0 mm 2 m/S 772 mmHg 74%
10:00 +16°C° 0 mm 1 m/S 772 mmHg 67%
11:00 +16°C° 0 mm 1 m/S 771 mmHg 64%
12:00 +18°C° 0 mm 1 m/S 770 mmHg 62%
13:00 +19°C° 0 mm 1 m/S 770 mmHg 60%
14:00 +19°C° 0 mm 1 m/S 769 mmHg 61%
15:00 +18°C° 0 mm 2 m/S 769 mmHg 62%
16:00 +18°C° 0 mm 2 m/S 769 mmHg 63%
17:00 +17°C° 0 mm 2 m/S 769 mmHg 71%
18:00 +14°C° 0 mm 3 m/S 770 mmHg 79%
19:00 +13°C° 0 mm 3 m/S 770 mmHg 87%
20:00 +13°C° 0.1 mm 3 m/S 770 mmHg 88%
21:00 +12°C° 0.1 mm 3 m/S 770 mmHg 90%
22:00 +12°C° 0.1 mm 3 m/S 770 mmHg 92%
23:00 +12°C° 0.1 mm 3 m/S 770 mmHg 92%

Morgen, 10 Juli, Freitag

Zeit Temperatur Niederschläge Wind Luftdruck Luftfeuchtigkeit
00:00 +13°C° 0.1 mm 2 m/S 770 mmHg 93%
01:00 +12°C° 0.1 mm 2 m/S 769 mmHg 93%
02:00 +12°C° 0 mm 2 m/S 769 mmHg 93%
03:00 +12°C° 0 mm 2 m/S 769 mmHg 93%
04:00 +12°C° 0 mm 2 m/S 769 mmHg 93%
05:00 +10°C° 0 mm 2 m/S 769 mmHg 91%
06:00 +10°C° 0 mm 2 m/S 769 mmHg 89%
07:00 +10°C° 0 mm 2 m/S 769 mmHg 87%
08:00 +13°C° 0 mm 2 m/S 769 mmHg 79%
09:00 +14°C° 0 mm 2 m/S 769 mmHg 70%
10:00 +16°C° 0 mm 3 m/S 769 mmHg 62%
11:00 +17°C° 0 mm 2 m/S 768 mmHg 54%
12:00 +19°C° 0 mm 2 m/S 767 mmHg 46%
13:00 +22°C° 0 mm 1 m/S 767 mmHg 38%
14:00 +21°C° 0 mm 2 m/S 766 mmHg 41%
15:00 +20°C° 0 mm 3 m/S 766 mmHg 43%
16:00 +20°C° 0 mm 3 m/S 765 mmHg 45%
17:00 +18°C° 0 mm 3 m/S 766 mmHg 54%
18:00 +17°C° 0 mm 3 m/S 766 mmHg 63%
19:00 +16°C° 0 mm 3 m/S 766 mmHg 73%
20:00 +16°C° 0 mm 3 m/S 766 mmHg 74%
21:00 +14°C° 0 mm 3 m/S 766 mmHg 76%
22:00 +14°C° 0 mm 3 m/S 766 mmHg 78%
23:00 +14°C° 0.3 mm 3 m/S 766 mmHg 81%

übermorgen, 11 Juli, Samstag

Zeit Temperatur Niederschläge Wind Luftdruck Luftfeuchtigkeit
00:00 +14°C° 0.3 mm 3 m/S 765 mmHg 84%
01:00 +13°C° 0.3 mm 3 m/S 765 mmHg 87%
02:00 +13°C° 0.6 mm 3 m/S 764 mmHg 89%
03:00 +13°C° 0.6 mm 3 m/S 763 mmHg 90%
04:00 +13°C° 0.6 mm 3 m/S 763 mmHg 92%
05:00 +13°C° 0.2 mm 3 m/S 763 mmHg 92%
06:00 +13°C° 0.2 mm 4 m/S 763 mmHg 92%
07:00 +13°C° 0.2 mm 4 m/S 763 mmHg 92%
08:00 +14°C° 0 mm 4 m/S 763 mmHg 87%
09:00 +15°C° 0 mm 4 m/S 763 mmHg 81%
10:00 +16°C° 0 mm 5 m/S 763 mmHg 76%
11:00 +19°C° 0 mm 4 m/S 762 mmHg 67%
12:00 +20°C° 0 mm 3 m/S 761 mmHg 58%
13:00 +23°C° 0 mm 2 m/S 761 mmHg 49%
14:00 +23°C° 0 mm 2 m/S 761 mmHg 49%
15:00 +21°C° 0 mm 2 m/S 760 mmHg 49%
16:00 +21°C° 0 mm 2 m/S 760 mmHg 48%
17:00 +19°C° 0.1 mm 3 m/S 761 mmHg 55%
18:00 +18°C° 0.1 mm 3 m/S 761 mmHg 62%
19:00 +15°C° 0.1 mm 4 m/S 761 mmHg 68%
20:00 +14°C° 0 mm 3 m/S 761 mmHg 70%
21:00 +14°C° 0 mm 3 m/S 762 mmHg 73%
22:00 +13°C° 0 mm 3 m/S 762 mmHg 75%
23:00 +13°C° 0 mm 2 m/S 761 mmHg 77%

12 Juli, Sonntag

Zeit Temperatur Niederschläge Wind Luftdruck Luftfeuchtigkeit
00:00 +13°C° 0 mm 2 m/S 761 mmHg 79%
01:00 +13°C° 0 mm 1 m/S 761 mmHg 81%
02:00 +12°C° 0 mm 1 m/S 761 mmHg 82%
03:00 +12°C° 0 mm 1 m/S 761 mmHg 84%
04:00 +12°C° 0 mm 2 m/S 761 mmHg 85%
05:00 +12°C° 0 mm 2 m/S 761 mmHg 86%
06:00 +10°C° 0 mm 2 m/S 761 mmHg 86%
07:00 +10°C° 0 mm 2 m/S 761 mmHg 87%
08:00 +13°C° 0 mm 2 m/S 761 mmHg 81%
09:00 +14°C° 0 mm 2 m/S 761 mmHg 76%
10:00 +15°C° 0 mm 2 m/S 762 mmHg 71%
11:00 +15°C° 0.5 mm 2 m/S 761 mmHg 74%
12:00 +15°C° 0.5 mm 2 m/S 760 mmHg 77%
13:00 +15°C° 0.5 mm 2 m/S 760 mmHg 80%
14:00 +16°C° 0.2 mm 2 m/S 760 mmHg 79%
15:00 +16°C° 0.2 mm 1 m/S 759 mmHg 78%
16:00 +16°C° 0.2 mm 1 m/S 759 mmHg 78%
17:00 +15°C° 0.3 mm 1 m/S 760 mmHg 82%
18:00 +14°C° 0.3 mm 2 m/S 760 mmHg 87%
19:00 +13°C° 0.3 mm 2 m/S 760 mmHg 92%
20:00 +12°C° 0.7 mm 3 m/S 760 mmHg 92%
21:00 +12°C° 0.7 mm 3 m/S 760 mmHg 93%
22:00 +11°C° 0.7 mm 3 m/S 760 mmHg 94%
23:00 +11°C° 0.2 mm 3 m/S 760 mmHg 95%

13 Juli, Montag

Zeit Temperatur Niederschläge Wind Luftdruck Luftfeuchtigkeit
00:00 +12°C° 0.2 mm 2 m/S 760 mmHg 95%
01:00 +10°C° 0.2 mm 2 m/S 760 mmHg 95%
02:00 +10°C° 0 mm 2 m/S 760 mmHg 94%
03:00 +10°C° 0 mm 3 m/S 760 mmHg 93%
04:00 +10°C° 0 mm 3 m/S 760 mmHg 92%
05:00 +9°C° 0 mm 3 m/S 760 mmHg 91%
06:00 +9°C° 0 mm 3 m/S 760 mmHg 91%
07:00 +8°C° 0 mm 3 m/S 761 mmHg 90%
08:00 +10°C° 0 mm 3 m/S 761 mmHg 83%
09:00 +11°C° 0 mm 3 m/S 761 mmHg 77%
10:00 +12°C° 0 mm 3 m/S 761 mmHg 70%
11:00 +13°C° 0.1 mm 3 m/S 760 mmHg 66%
12:00 +16°C° 0.1 mm 3 m/S 760 mmHg 62%
13:00 +17°C° 0.1 mm 3 m/S 759 mmHg 58%
14:00 +17°C° 0.3 mm 3 m/S 759 mmHg 60%
15:00 +17°C° 0.3 mm 4 m/S 759 mmHg 62%
16:00 +15°C° 0.3 mm 4 m/S 758 mmHg 63%
17:00 +14°C° 0.6 mm 5 m/S 758 mmHg 71%
18:00 +13°C° 0.6 mm 5 m/S 758 mmHg 78%
19:00 +11°C° 0.6 mm 6 m/S 758 mmHg 86%
20:00 +13°C° 5.3 mm 6 m/S 758 mmHg 88%
21:00 +13°C° 5.3 mm 5 m/S 758 mmHg 90%
22:00 +13°C° 5.3 mm 5 m/S 757 mmHg 93%
23:00 +12°C° 4.3 mm 8 m/S 757 mmHg 90%

14 Juli, Dienstag

Zeit Temperatur Niederschläge Wind Luftdruck Luftfeuchtigkeit
00:00 +13°C° 4.3 mm 11 m/S 757 mmHg 86%
01:00 +13°C° 4.3 mm 13 m/S 757 mmHg 83%
02:00 +13°C° 0.7 mm 14 m/S 757 mmHg 83%
03:00 +12°C° 0.7 mm 14 m/S 757 mmHg 82%
04:00 +12°C° 0.7 mm 14 m/S 757 mmHg 82%
05:00 +12°C° 0.5 mm 14 m/S 757 mmHg 79%
06:00 +10°C° 0.5 mm 14 m/S 758 mmHg 77%
07:00 +10°C° 0.5 mm 14 m/S 758 mmHg 74%
08:00 +10°C° 0.7 mm 14 m/S 758 mmHg 74%
09:00 +10°C° 0.7 mm 14 m/S 759 mmHg 75%
10:00 +12°C° 0.7 mm 14 m/S 759 mmHg 75%
11:00 +12°C° 1.2 mm 14 m/S 758 mmHg 74%
12:00 +12°C° 1.2 mm 14 m/S 758 mmHg 74%
13:00 +12°C° 1.2 mm 14 m/S 758 mmHg 73%
14:00 +12°C° 0.9 mm 14 m/S 758 mmHg 72%
15:00 +12°C° 0.9 mm 14 m/S 758 mmHg 70%
16:00 +12°C° 0.9 mm 14 m/S 759 mmHg 68%
17:00 +12°C° 0.9 mm 14 m/S 759 mmHg 69%
18:00 +10°C° 0.9 mm 14 m/S 760 mmHg 70%
19:00 +10°C° 0.9 mm 14 m/S 760 mmHg 71%
20:00 +10°C° 1.2 mm 14 m/S 760 mmHg 74%
21:00 +10°C° 1.2 mm 14 m/S 760 mmHg 77%
22:00 +10°C° 1.2 mm 13 m/S 760 mmHg 79%
23:00 +10°C° 1.1 mm 13 m/S 761 mmHg 80%
Mehr zeigen